Tracking 17996 objects as of 28-February-2017
HD Live streaming from Space Station
objects crossing your sky now

GALAXY 14

Track GALAXY 14 now!
GALAXY 14 is classified as:


NORAD ID: 28790
Int'l Code: 2005-030A
Perigee: 35,860.5 km
Apogee: 35,879.7 km
Inclination: 0.1 °
Period: 1,440.0 minutes
Semi major axis: 42241 km
RCS: 19.9526 m2 (large)
Launch date: August 13, 2005
Source: United States (US)
Launch site: TYURATAM MISSILE AND SPACE COMPLEX (TTMTR)

24 C-band transponders; North America, Caribbean.
Your satellite tracking list
Your tracking list is empty





NASA's NSSDC Master Catalog

Two Line Element Set (TLE):
1 28790U 05030A   17058.54697630  .00000024  00000-0  00000+0 0  9990
2 28790   0.0558 280.4365 0002274  58.5896 250.4372  1.00273549 42246
Source of the keplerian elements: AFSPC